Location: Days
(41.3591°N, 106.7339°W)
Time: 07:42:36
(UTC+00:00)

AIST 2D - Pass Details

Date: 05 July 2022
Orbit: 433 x 443 km, 97.0° (Epoch: 14 August)

Event Time Altitude Azimuth Distance (km) Brightness Sun altitude
Rises 04:08:41 0° 22° (NNE) 2,426 ? -13.1°
Reaches altitude 10° 04:10:53 10° 34° (NE) 1,554 ? -13.4°
Maximum altitude 04:13:50 29° 97° (E) 839 ? -13.8°
Enters shadow 04:14:36 26° 122° (ESE) 905 ? -13.9°
